Regional Weather Roundup
Issued by NWS Cleveland, OH

Home | Current Version | Previous Version | Graphics & Text | Print | Product List | Glossary On
Versions: 1 2 3 4 5 6 7 8 9 10 11 12 13 14 15 16 17 18 19 20 21 22 23 24 25 26 27 28 29 30 31 32 33 34 35 36 37 38 39 40 41 42 43 44 45 46 47 48 49 50
000
ASUS41 KCLE 280310
RWRCLE
OHIO REGIONAL WEATHER ROUNDUP
NATIONAL WEATHER SERVICE CLEVELAND, OH
1100 PM EDT WED MAY 27 2015

NOTE: "FAIR" INDICATES FEW OR NO CLOUDS BELOW 12,000 FEET WITH NO
SIGNIFICANT WEATHER AND/OR OBSTRUCTIONS TO VISIBILITY.

OHZ001>008-015>018-024>027-034-035-043-044-280400-
   NORTHWEST OHIO

CITY           SKY/WX    TMP DP  RH WIND       PRES   REMARKS
DEFIANCE       PTCLDY    68  60  75 VRB3      30.09R
FINDLAY        CLOUDY    67  64  90 SW5       30.08R
TOLEDO EXPRESS CLOUDY    65  63  93 W3        30.07R
TOLEDO EXEC    CLOUDY    67  63  87 SW3       30.08R
LIMA           CLOUDY    68  63  84 SW6       30.09R
$$

OHZ009>014-019>023-028>033-038-089-280400-
   NORTHEAST OHIO

CITY           SKY/WX    TMP DP  RH WIND       PRES   REMARKS
CLE-HOPKINS    CLOUDY    64  62  93 S7        30.09S
CLE-LAKEFRONT  LGT RAIN  67  62  84 S8        30.07R
CUY CO. ARPT   MOCLDY    66  63  88 W12       30.10R
LORAIN-ELYRIA  CLOUDY    64  64 100 SW6       30.08F
ASHTABULA      RAIN      63  61  93 S12       30.10S FOG
AKRON-CANTON   CLOUDY    65  62  90 E3        30.10S
WOOSTER        LGT RAIN  63  63 100 CALM      30.12R FOG
MANSFIELD      LGT RAIN  65  64  97 SW6       30.10S FOG
YOUNGSTOWN     TSTM      62  61  96 S3        30.12F FOG
$$

OHZ042-051>053-060>062-070>072-077>081-280400-
  SOUTHWEST OHIO

CITY           SKY/WX    TMP DP  RH WIND       PRES   REMARKS
CINC-COVINGTON CLOUDY    66  61  84 SW8       30.14R
CINC-LUNKEN    MOCLDY    66  61  84 SW6       30.14R
HAMILTON       MOCLDY    69  61  75 SW6       30.14R
DAYTON         CLOUDY    71  61  70 SW12      30.12R
WRIGHT-PAT AFB PTCLDY    70  60  71 S9        30.11R
DAYTON GENERAL CLOUDY    69  60  73 S13       30.11R
WILMINGTON     MOCLDY    67  58  72 SW10      30.13R
$$

OHZ036-037-039>041-045>050-054>059-063>069-073>076-082>088-280400-
  CENTRAL AND SOUTHEAST OHIO

CITY           SKY/WX    TMP DP  RH WIND       PRES   REMARKS
COLUMBUS       MOCLDY    73  56  54 SW13G20   30.10R
OSU AIRPORT    PTCLDY    73  58  59 SW13G26   30.10R
BOLTON FIELD   NOT AVBL
RICKENBACK AFB CLEAR     69  56  63 SW8       30.11R
NEWARK         CLEAR     73  57  57 SW12      30.10R
MARION         CLOUDY    66  64  93 S3        30.10R
LANCASTER      CLEAR     72  56  57 SW10      30.12R
ZANESVILLE     NOT AVBL
NEW PHILLY     MOCLDY    70  59  68 CALM      30.09S
$$


USA.gov is the U.S. government's official web portal to all federal, state and local government web resources and services.